Fowler, IL

12:26 PM CDT on August 24, 2016 (GMT -0500)
Quincy Regional-Baldwin

Weather History for KUIN - October, 2014

Change the Weather History Date:

Sunday, October 12, 2014

  Actual Average Record
Temperature  
Mean Temperature 50 °F 56 °F  
Max Temperature 56 °F 66 °F 88 °F (1975)
Min Temperature 43 °F 45 °F 27 °F (1909)
Degree Days  
Heating Degree Days 15 10  
Month to date heating degree days 119 98  
Since 1 July heating degree days 211 185  
Cooling Degree Days 0 1  
Month to date cooling degree days 0 13  
Year to date cooling degree days 1016 1089  
Moisture  
Dew Point 48 °F    
Average Humidity 88    
Maximum Humidity 100    
Minimum Humidity 76    
Precipitation  
Precipitation 0.04 in 0.10 in 4.46 in (1969)
Month to date precipitation 4.51 1.20  
Year to date precipitation 36.40 30.25  
Sea Level Pressure  
Sea Level Pressure 29.91 in    
Wind  
Wind Speed 7 mph (SE)    
Max Wind Speed 10 mph    
Max Gust Speed 14 mph    
Visibility 4 miles    
Events Fog , Rain    
T = Trace of Precipitation, MM = Missing Value Source: NWS Daily Summary

Daily Weather History Graph

Daily Weather History Graph

Search for Another Location

Airport or City:

Trip Planner

Search our weather history database for the weather conditions in past years. The results will help you decide how hot, cold, wet, or windy it might be!

Date:

Astronomy

Oct. 12, 2014 Rise Set
Actual Time 7:12 AM CDT 6:29 PM CDT
Civil Twilight 6:44 AM CDT 6:56 PM CDT
Nautical Twilight 6:13 AM CDT 7:28 PM CDT
Astronomical Twilight 5:42 AM CDT 7:59 PM CDT
Moon 9:48 PM CDT (10/12) 11:34 AM CDT (10/12)
Length of Visible Light 12h 11m
Length of Day
11h 17m
Waning Gibbous, 79% of the Moon is Illuminated
Oct 12
Waning Gibbous
Oct 15
Last Quarter
Oct 23
New
Oct 30
First Quarter
Nov 6
Full

Hourly Weather History & Observations

Time (CDT) Temp. Windchill Dew Point Humidity Pressure Visibility Wind Dir Wind Speed Gust Speed Precip Events Conditions
12:54 AM 45.0 °F 42.6 °F 37.9 °F 76% 30.07 in 10.0 mi East 4.6 mph - N/A   Clear
1:54 AM 44.1 °F 40.8 °F 37.9 °F 79% 30.05 in 10.0 mi ESE 5.8 mph - N/A   Clear
2:54 AM 44.1 °F 40.1 °F 37.9 °F 79% 30.04 in 10.0 mi ESE 6.9 mph - N/A   Clear
3:54 AM 42.8 °F 40.1 °F 37.4 °F 81% 30.01 in 10.0 mi East 4.6 mph - N/A   Mostly Cloudy
4:54 AM 45.0 °F 41.2 °F 39.0 °F 80% 30.01 in 10.0 mi ESE 6.9 mph - N/A   Overcast
5:30 AM 45.0 °F 40.6 °F 39.9 °F 82% 29.99 in 10.0 mi ESE 8.1 mph - N/A   Overcast
5:38 AM 45.0 °F 40.6 °F 39.9 °F 82% 29.99 in 10.0 mi ESE 8.1 mph - N/A   Overcast
5:54 AM 46.0 °F 42.5 °F 39.9 °F 79% 29.99 in 10.0 mi ESE 6.9 mph - N/A   Overcast
6:54 AM 46.9 °F - 41.0 °F 80% 29.99 in 10.0 mi ESE 5.8 mph - N/A   Overcast
7:54 AM 46.9 °F - 42.1 °F 83% 29.98 in 10.0 mi ESE 8.1 mph - N/A   Overcast
8:29 AM 48.0 °F - 42.1 °F 80% 29.97 in 10.0 mi ESE 10.4 mph - N/A   Overcast
8:44 AM 48.0 °F - 43.0 °F 83% 29.97 in 10.0 mi ESE 8.1 mph - N/A   Overcast
8:54 AM 48.9 °F - 43.0 °F 80% 29.96 in 10.0 mi ESE 9.2 mph - N/A   Overcast
9:44 AM 48.9 °F - 46.0 °F 90% 29.95 in 2.0 mi ESE 8.1 mph - 0.01 in Rain Light Rain
9:51 AM 48.2 °F - 46.4 °F 93% 29.95 in 3.0 mi ESE 8.1 mph - 0.01 in Rain Light Rain
9:52 AM 48.9 °F - 46.0 °F 90% 29.95 in 3.0 mi ESE 9.2 mph - 0.01 in Rain Light Rain
10:05 AM 48.9 °F - 46.9 °F 93% 29.94 in 2.5 mi ESE 8.1 mph - 0.01 in Rain Light Rain
10:10 AM 48.9 °F - 46.9 °F 93% 29.95 in 3.0 mi ESE 8.1 mph - 0.01 in Rain Light Rain
10:25 AM 48.9 °F - 48.0 °F 97% 29.94 in 3.0 mi SE 8.1 mph - 0.01 in Rain Light Rain
10:48 AM 50.0 °F - 48.2 °F 94% 29.94 in 1.8 mi SE 9.2 mph - 0.01 in   Overcast
10:54 AM 50.0 °F - 48.0 °F 93% 29.94 in 1.2 mi SE 8.1 mph - 0.01 in   Overcast
11:06 AM 50.0 °F - 48.9 °F 96% 29.93 in 1.2 mi ESE 8.1 mph - N/A   Overcast
11:25 AM 51.1 °F - 48.9 °F 92% 29.93 in 0.8 mi SE 8.1 mph - N/A   Overcast
11:54 AM 51.1 °F - 50.0 °F 96% 29.92 in 1.0 mi ESE 8.1 mph - N/A   Overcast
12:54 PM 52.0 °F - 51.1 °F 97% 29.90 in 1.8 mi SE 9.2 mph - N/A   Overcast
1:21 PM 53.1 °F - 51.1 °F 93% 29.88 in 2.0 mi SSE 8.1 mph - N/A   Overcast
1:54 PM 53.1 °F - 51.1 °F 93% 29.87 in 3.0 mi SSE 9.2 mph - N/A   Overcast
2:02 PM 53.1 °F - 52.0 °F 96% 29.86 in 2.0 mi SE 10.4 mph - 0.01 in Rain Light Rain
2:10 PM 53.1 °F - 52.0 °F 96% 29.85 in 1.5 mi SSE 8.1 mph - 0.02 in Rain Rain
2:22 PM 54.0 °F - 52.0 °F 93% 29.85 in 2.5 mi SSE 8.1 mph - 0.02 in Rain Light Rain
2:29 PM 54.0 °F - 52.0 °F 93% 29.85 in 4.0 mi SSE 8.1 mph - 0.02 in   Overcast
2:49 PM 55.4 °F - 51.8 °F 88% 29.84 in 7.0 mi SSE 9.2 mph - 0.02 in   Overcast
2:54 PM 54.0 °F - 52.0 °F 93% 29.85 in 6.0 mi SSE 10.4 mph - 0.02 in   Overcast
3:54 PM 53.6 °F - 51.8 °F 94% 29.83 in 3.0 mi SE 6.9 mph - N/A   Overcast
4:54 PM 55.0 °F - 53.1 °F 93% 29.83 in 3.0 mi SSE 8.1 mph - N/A   Overcast
5:19 PM 55.0 °F - 53.1 °F 93% 29.82 in 2.5 mi SE 8.1 mph - N/A   Overcast
5:40 PM 55.0 °F - 53.1 °F 93% 29.82 in 1.8 mi SE 6.9 mph - N/A   Overcast
5:54 PM 55.0 °F - 53.1 °F 93% 29.83 in 2.0 mi SE 6.9 mph - N/A   Overcast
6:54 PM 55.0 °F - 54.0 °F 96% 29.83 in 1.8 mi SE 4.6 mph - N/A   Overcast
7:18 PM 55.0 °F - 54.0 °F 96% 29.83 in 0.8 mi SE 5.8 mph - N/A   Overcast
7:54 PM 55.0 °F - 54.0 °F 96% 29.84 in 0.2 mi SE 8.1 mph - N/A Fog Fog
8:54 PM 55.0 °F - 55.0 °F 100% 29.85 in 0.2 mi ESE 4.6 mph - N/A Fog Fog
9:02 PM 55.0 °F - 54.0 °F 96% 29.85 in 0.5 mi SE 4.6 mph - N/A Fog Fog
9:24 PM 55.0 °F - 54.0 °F 96% 29.85 in 1.0 mi SE 5.8 mph - N/A   Mist
9:52 PM 55.4 °F - 55.4 °F 100% 29.84 in 0.8 mi ESE 6.9 mph - N/A   Mist
9:54 PM 55.0 °F - 55.0 °F 100% 29.84 in 0.8 mi ESE 6.9 mph - N/A   Mist
10:54 PM 55.9 °F - 55.0 °F 97% 29.84 in 0.5 mi ESE 5.8 mph - N/A Fog Fog
11:54 PM 55.9 °F - 55.0 °F 97% 29.83 in 0.5 mi SE 3.5 mph - N/A Fog Fog